Flag for Canada Weather past 2 weeks in Gatineau, Quebec, Canada

Now
23 °F

Passing clouds.


Feels Like: 12 °F
Forecast: 19 / 35 °F
Wind: 12 mph from Northwest

Location: Ottawa Int'L. Ont.

Current Time: Mar 31, 2015 at 8:37:07 AM

Latest Report: Mar 31, 2015 at 8:00 AM


Visibility: 15 mi

Pressure: 29.88 "Hg

Humidity: 63%

Dew point: 12 °F

Location of GatineauLocation

Historic Weather in Gatineau — Graph

°F

Gatineau temperature yesterday

Maximum temperature yesterday: 41 °F (at 3:00 PM)
Minimum temperature yesterday: 32 °F (at 12:00 AM)
Average temperature yesterday: 36 °F

Past Weeks' High & Low Weather Summary

 TemperatureHumidityPressure
High41 °F (Mar 16, 5:00 PM)100% (Mar 16, 7:00 AM)30.42 "Hg (Mar 16, 7:00 AM)
Low1 °F (Mar 23, 7:00 AM)24% (Mar 28, 6:00 PM)29.50 "Hg (Mar 30, 9:00 AM)
Average25 °F65%30.03 "Hg
* Reported Mar 16 7:00 AM — Mar 31 7:00 AM, Gatineau, Weather by CustomWeather, © 2015

Note: Actual official high and low records may vary slightly from our data, if they occured in-between our weather recording intervals... More about our weather records

Advertising

Gatineau weather history for previous 24 hours

 ConditionsComfort  
Time TempWeatherWind HumidityBarometerVisibility
7:00 AM
Tue, Mar 31
23 °FPassing clouds.12 mph68%29.86 "Hg15 mi
6:00 AM23 °FPassing clouds.13 mph63%29.84 "Hg15 mi
5:00 AM25 °FPassing clouds.15 mph63%29.83 "Hg15 mi
4:00 AM28 °FPassing clouds.16 mph64%29.81 "Hg15 mi
3:00 AM30 °FLight snow. Overcast.16 mph59%29.81 "Hg15 mi
2:46 AM30 °FLight snow. Overcast.16 mph64%29.80 "Hg15 mi
2:00 AM32 °FOvercast.16 mph60%29.79 "Hg15 mi
1:00 AM32 °FOvercast.16 mph64%29.78 "Hg15 mi
12:00 AM34 °FOvercast.16 mph60%29.77 "Hg15 mi
11:00 PM
Mon, Mar 30
34 °FPartly cloudy.22 mph60%29.76 "Hg15 mi
10:00 PM32 °FPassing clouds.15 mph69%29.74 "Hg15 mi
9:00 PM36 °FPassing clouds.15 mph65%29.71 "Hg15 mi
8:00 PM37 °FBroken clouds.21 mph70%29.67 "Hg15 mi
7:00 PM37 °FBroken clouds.14 mph70%29.65 "Hg15 mi
6:00 PM37 °FBroken clouds.18 mph75%29.63 "Hg15 mi
5:00 PM39 °FPartly sunny.17 mph70%29.60 "Hg15 mi
4:00 PM41 °FOvercast.16 mph66%29.58 "Hg15 mi
3:00 PM41 °FPartly sunny.16 mph76%29.55 "Hg15 mi
2:00 PM39 °FMore clouds than sun.15 mph87%29.53 "Hg10 mi
1:49 PM37 °FMore clouds than sun.17 mph93%29.53 "Hg8 mi
1:00 PM37 °FLight rain. Mostly cloudy.13 mph87%29.51 "Hg8 mi
12:00 PM37 °FLight rain. Mostly cloudy.16 mph87%29.51 "Hg10 mi
11:00 AM36 °FLight rain. Mostly cloudy.12 mph93%29.50 "Hg10 mi
10:00 AM34 °FLight snow. Low clouds.14 mph93%29.50 "Hg5 mi
9:00 AM34 °FLight snow. Low clouds.15 mph93%29.50 "Hg3 mi
8:00 AM34 °FLight snow. Low clouds.12 mph93%29.52 "Hg3 mi
Weather by CustomWeather, © 2015

See weather overviewHow to use our weather pages